Starlink 2720

operational
NORAD ID: 48653 Int'l Des: 2021-044 Owner: SPXS Country: US Constellation: starlink
LEOCIRCULARSTARLINK_TYPE

Über Starlink 2720

Beschreibung wird geladen...

Live-Position

3D-Globus wird geladen...

Nächste Überflüge

Höhenverlauf

Altitude vs Time

uPlot chart will show altitude changes over time

Zweizeiliger Elementsatz

1 48653U 21044R 25350.67964521 .00005867 00000-0 41244-3 0 9996
2 48653 53.0531 134.2643 0001442 90.0975 270.0179 15.06402434251192
Epoch: 16. Dez. 2025 • Age: 27 hours

Aktueller Status

Höhe 547.8 km
Geschwindigkeit 7.59 km/s
Subsatellitenpunkt 26.73°N, 131.65°E
Startdatum 26. Mai 2021
Alter 4.5 years
Typ internet

Technische Details

Klassifizierung Payload
Masse 260.00 kg
Trockenmasse 248.00 kg
Gesamtmasse 260.00 kg
Länge 0.20 m
Durchmesser 2.80 m
Spannweite 9.00 m
Form Box + pan
Hersteller SPXS
Bus-Typ Starlink
Phasenstatus In Orbit
Besitzer/Staat SPXS/US

Große Konstellationen

Loading constellations...